Starlink 3391

operational
NORAD ID: 51117 Int'l Des: 2022-005 Owner: SPXS Country: US Constellation: starlink
LEOCIRCULAR

About Starlink 3391

Description loading...

Live Position

Loading 3D Globe...

Upcoming Passes

Altitude History

Altitude vs Time

uPlot chart will show altitude changes over time

Two-Line Element Set

1 51117U 22005P 25303.89057686 -.00000163 00000-0 78355-5 0 9990
2 51117 53.2154 151.7011 0001450 87.2043 272.9115 15.08837343209287
Epoch: Oct 30, 2025 • Age: 20 hours

Current Status

Altitude 542.8 km
Velocity 7.60 km/s
Sub-Earth Point 41.20°N, 7.86°W
Launch Date Jan 19, 2022
Age 3.7 years
Type internet

Technical Details

Classification Payload
Mass 297.00 kg
Dry Mass 275.00 kg
Total Mass 297.00 kg
Length 0.20 m
Diameter 2.80 m
Span 9.00 m
Shape Box + pan
Manufacturer SPXS
Bus Type Starlink
Phase Status In Orbit
Owner/State SPXS/US

Large Constellations

Loading constellations...